Regional Weather Roundup
Issued by NWS

Home | Current Version | Previous Version | Graphics & Text | Print | Product List | Glossary On
Versions: 1 2 3 4 5 6 7 8 9 10 11 12 13 14 15 16 17 18 19 20 21 22 23 24 25 26 27 28 29 30 31 32 33 34 35 36 37 38 39 40 41 42 43 44 45 46 47 48 49 50
000
ASUS43 KBIS 271610
RWRND

NORTH DAKOTA REGIONAL WEATHER ROUNDUP
NATIONAL WEATHER SERVICE BISMARCK ND
1100 AM CDT FRI MAR 27 2015

NOTE: "FAIR" INDICATES FEW OR NO CLOUDS BELOW 12,000 FEET WITH NO
SIGNIFICANT WEATHER AND/OR OBSTRUCTIONS TO VISIBILITY.


NDZ001>003-009>011-017-271700-
NORTHWEST NORTH DAKOTA

CITY           SKY/WX    TMP DP  RH WIND       PRES   REMARKS
WILLISTON      CLOUDY    39  32  76 SW5       29.92F
MINOT          CLOUDY    32  26  78 S17       29.94F
MINOT AFB      CLOUDY    32  32 100 S12       29.94F
$$

NDZ018>021-031>035-040>046-271700-
SOUTHWEST NORTH DAKOTA

CITY           SKY/WX    TMP DP  RH WIND       PRES   REMARKS
BISMARCK       CLOUDY    27  23  85 S18       30.04F WCI  14
DICKINSON      PTSUNNY   48  35  60 W14       29.91S
GARRISON         N/A     30  26  85 S17       29.96F WCI  18
HETTINGER ARPT CLOUDY    39  31  72 SW8       29.97F
$$

NDZ004>008-012>016-024-026-027-054-271700-
NORTHEAST NORTH DAKOTA

CITY           SKY/WX    TMP DP  RH WIND       PRES   REMARKS
GRAND FORKS    CLOUDY    28  11  48 S13       30.19F WCI  17
GRND FRKS AFB  CLOUDY    27  14  57 S12       30.17F WCI  17
DEVILS LAKE    CLOUDY    25  19  80 S14       30.07F WCI  13
$$

NDZ022-023-025-028>030-036>039-047>053-271700-
SOUTHEAST NORTH DAKOTA

CITY           SKY/WX    TMP DP  RH WIND       PRES   REMARKS
FARGO          PTSUNNY   29  12  49 S13       30.22F WCI  19
JAMESTOWN      LGT SNOW  27  17  66 S16       30.12F WCI  15
$$




USA.gov is the U.S. government's official web portal to all federal, state and local government web resources and services.